Location: Alvediston
(51.0078°N, 2.0364°W)
Time: 09:34:18
(UTC+00:00)

APEX - Pass Details

Date: 27 February 2020
Orbit: 330 x 1119 km, 69.9° (Epoch: 03 April)

Event Time Altitude Azimuth Distance (km) Brightness Sun altitude
Rises 19:39:16 0° 194° (SSW) 3,010 7.1 -18.7°
Reaches altitude 10° 19:41:23 10° 190° (S) 2,215 6.4 -19.1°
Maximum altitude 19:46:23 56° 113° (ESE) 1,005 4.2 -19.8°
Drops below altitude 10° 19:52:37 10° 37° (NE) 2,742 6.6 -20.8°
Sets 19:55:28 0° 34° (NE) 3,790 7.4 -21.2°
